Regional Weather Roundup
Issued by NWS

Home | Current Version | Previous Version | Text Only | Print | Product List | Glossary On
Versions: 1 2 3 4 5 6 7 8 9 10 11 12 13 14 15 16 17 18 19 20 21 22 23 24 25 26 27 28 29 30 31 32 33 34 35 36 37 38 39 40 41 42 43 44 45 46 47 48 49 50
000
ASUS44 KLIX 291112
RWRLA
LOUISIANA WEATHER ROUNDUP
NATIONAL WEATHER SERVICE NEW ORLEANS LA
600 AM CDT WED JUL 29 2015

NOTE: "FAIR" INDICATES FEW OR NO CLOUDS BELOW 12,000 FEET WITH NO
      SIGNIFICANT WEATHER AND/OR OBSTRUCTIONS TO VISIBILITY.
      SKY/WX - SKY CONDITION AND SIGNIFICANT WEATHER.
      TMP - AIR TEMPERATURE.    DP   - DEWPOINT TEMPERATURE.
      RH  - RELATIVE HUMIDITY.  PRES - PRESSURE.
      HX  - HEAT INDEX.         WCI  - WIND CHILL INDEX.

*  THESE STATIONS ARE NOT NWS OR FAA STATIONS AND ARE NOT UNDER
   NWS QUALITY CONTROL.

LAZ040-048-061>063-065-066-069-291200-
SOUTHEAST LOUISIANA

CITY           SKY/WX    TMP DP  RH WIND       PRES   REMARKS
N.O. AUDUBON     N/A     81  79  92 MISG        N/A
N.O. INTL ARPT MOCLDY    79  73  82 W5        29.99S
N.O. LAKEFRONT CLEAR     88  76  67 W15       29.99R HX  99
N.O. DOWNTOWN* FAIR      82  75  78 W3        30.00S
RESERVE*         N/A     78  75  90 CALM      30.00R
SLIDELL        FAIR      80  77  90 CALM      29.98R
BATON ROUGE    CLEAR     80  75  84 W3        30.00S
BOOTHVILLE     PTCLDY    83  76  79 NW3       29.99R
BELLE CHASSE   MOCLDY    79  75  87 NW3       29.99R
BOGALUSA*        N/A     78  73  86 CALM      30.00R
GALLIANO*      NOT AVBL
NEW ROADS*     FAIR     N/A N/A N/A CALM      30.01R
GONZALES*      FAIR      78  78 100 CALM      29.99S
HAMMOND*       CLEAR     79  73  83 W5        30.02R
HOUMA*         CLEAR     75  75  98 CALM      30.00R
PORT FOURCHON* SUNNY     84  73  70 NW5       30.00R

$$

LAZ041-044-053-054-291200-
SOUTHWEST LOUISIANA

CITY           SKY/WX    TMP DP  RH WIND       PRES   REMARKS
LAKE CHARLES   PTCLDY    78  76  93 CALM      30.01R
LAFAYETTE      CLEAR     80  75  84 NW3       30.00S
PATTERSON      CLEAR     77  73  88 CALM      30.02R
SALT POINT       N/A     81  76  84 N5        29.98R
NEW IBERIA     CLEAR     77  75  93 CALM      30.01R
CHENAULT AIRPK CLEAR     79  75  89 CALM      30.01S

$$

LAZ027-028-291200-
CENTRAL LOUISIANA

CITY           SKY/WX    TMP DP  RH WIND       PRES   REMARKS
FORT POLK      CLEAR     78  75  91 W7        30.01R
ALEXANDRIA INT CLEAR     76  74  93 CALM      30.00R
ALEXANDRIA     CLEAR     79  74  84 W5        30.01R

$$

LAZ001-002-291200-
NORTHWEST LOUISIANA

CITY           SKY/WX    TMP DP  RH WIND       PRES   REMARKS
SHREVEPORT     CLEAR     79  72  79 CALM      30.01R
BARKSDALE AFB  CLEAR     81  71  72 CALM      30.01R
DTN SHREVEPORT CLEAR     81  72  74 W3        30.01R

$$

LAZ014-016-291200-
NORTHEAST LOUISIANA

CITY           SKY/WX    TMP DP  RH WIND       PRES   REMARKS
MONROE         CLEAR     79  73  82 W3        30.01R
TALLULAH       CLEAR     75  72  90 CALM      30.00R FOG

$$




USA.gov is the U.S. government's official web portal to all federal, state and local government web resources and services.